When you browse on this site, cookies collect data to enhance your experience and personalize the content and advertising you see.
Visit our Privacy Policy to learn more. By continuing to use the site, you agree to this use of cookies and data.
EN

Hourly Weather Razgrad

Today, 20 September, Sunday

Time Temperature Precipitation Wind Pressure Humidity
00:00 +12°C° 0 mm 1 mps 746 mmHg 58%
01:00 +10°C° 0 mm 0 mps 745 mmHg 59%
02:00 +10°C° 0 mm 0 mps 745 mmHg 60%
03:00 +10°C° 0 mm 0 mps 745 mmHg 61%
04:00 +10°C° 0 mm 0 mps 745 mmHg 62%
05:00 +9°C° 0 mm 0 mps 745 mmHg 63%
06:00 +12°C° 0 mm 1 mps 745 mmHg 57%
07:00 +14°C° 0 mm 1 mps 745 mmHg 51%
08:00 +16°C° 0 mm 1 mps 745 mmHg 45%
09:00 +19°C° 0 mm 1 mps 745 mmHg 39%
10:00 +20°C° 0 mm 2 mps 745 mmHg 33%
11:00 +22°C° 0 mm 3 mps 745 mmHg 27%
12:00 +24°C° 0 mm 3 mps 745 mmHg 26%
13:00 +25°C° 0 mm 4 mps 745 mmHg 24%
14:00 +26°C° 0 mm 4 mps 744 mmHg 22%
15:00 +26°C° 0 mm 4 mps 744 mmHg 25%
16:00 +25°C° 0 mm 4 mps 744 mmHg 28%
17:00 +25°C° 0 mm 4 mps 744 mmHg 31%
18:00 +21°C° 0 mm 3 mps 744 mmHg 41%
19:00 +19°C° 0 mm 3 mps 744 mmHg 52%
20:00 +16°C° 0 mm 2 mps 744 mmHg 63%
21:00 +15°C° 0 mm 2 mps 744 mmHg 69%
22:00 +15°C° 0 mm 2 mps 744 mmHg 75%
23:00 +14°C° 0 mm 1 mps 745 mmHg 82%

Tomorrow, 21 September, Monday

Time Temperature Precipitation Wind Pressure Humidity
00:00 +13°C° 0 mm 1 mps 745 mmHg 83%
01:00 +13°C° 0 mm 1 mps 745 mmHg 85%
02:00 +13°C° 0 mm 1 mps 745 mmHg 87%
03:00 +12°C° 0 mm 1 mps 745 mmHg 87%
04:00 +12°C° 0 mm 1 mps 745 mmHg 88%
05:00 +12°C° 0 mm 1 mps 745 mmHg 88%
06:00 +14°C° 0 mm 1 mps 745 mmHg 81%
07:00 +15°C° 0 mm 1 mps 745 mmHg 75%
08:00 +18°C° 0 mm 1 mps 745 mmHg 68%
09:00 +19°C° 0 mm 2 mps 745 mmHg 59%
10:00 +22°C° 0 mm 3 mps 745 mmHg 49%
11:00 +25°C° 0 mm 4 mps 745 mmHg 39%
12:00 +26°C° 0 mm 4 mps 745 mmHg 36%
13:00 +27°C° 0 mm 3 mps 745 mmHg 32%
14:00 +28°C° 0 mm 3 mps 744 mmHg 29%
15:00 +28°C° 0 mm 3 mps 744 mmHg 30%
16:00 +27°C° 0 mm 3 mps 744 mmHg 31%
17:00 +27°C° 0 mm 3 mps 744 mmHg 32%
18:00 +24°C° 0 mm 3 mps 744 mmHg 40%
19:00 +21°C° 0 mm 3 mps 744 mmHg 49%
20:00 +18°C° 0 mm 3 mps 744 mmHg 57%
21:00 +17°C° 0 mm 3 mps 745 mmHg 62%
22:00 +16°C° 0 mm 3 mps 745 mmHg 66%
23:00 +15°C° 0 mm 2 mps 745 mmHg 71%

Day after tomorrow, 22 September, Tuesday

Time Temperature Precipitation Wind Pressure Humidity
00:00 +15°C° 0 mm 2 mps 745 mmHg 73%
01:00 +14°C° 0 mm 2 mps 745 mmHg 75%
02:00 +14°C° 0 mm 1 mps 745 mmHg 78%
03:00 +14°C° 0 mm 1 mps 744 mmHg 78%
04:00 +13°C° 0 mm 1 mps 744 mmHg 78%
05:00 +13°C° 0 mm 1 mps 744 mmHg 79%
06:00 +15°C° 0 mm 1 mps 745 mmHg 73%
07:00 +16°C° 0 mm 2 mps 745 mmHg 68%
08:00 +18°C° 0 mm 2 mps 745 mmHg 63%
09:00 +20°C° 0 mm 2 mps 745 mmHg 54%
10:00 +22°C° 0 mm 3 mps 745 mmHg 45%
11:00 +25°C° 0 mm 3 mps 745 mmHg 36%
12:00 +26°C° 0 mm 3 mps 745 mmHg 33%
13:00 +27°C° 0 mm 3 mps 744 mmHg 29%
14:00 +28°C° 0 mm 3 mps 744 mmHg 25%
15:00 +28°C° 0 mm 3 mps 743 mmHg 27%
16:00 +27°C° 0 mm 3 mps 743 mmHg 29%
17:00 +27°C° 0 mm 4 mps 743 mmHg 32%
18:00 +23°C° 0 mm 4 mps 743 mmHg 43%
19:00 +21°C° 0 mm 4 mps 743 mmHg 54%
20:00 +18°C° 0 mm 4 mps 743 mmHg 65%
21:00 +17°C° 0 mm 3 mps 743 mmHg 71%
22:00 +16°C° 0 mm 3 mps 743 mmHg 77%
23:00 +15°C° 0 mm 2 mps 743 mmHg 83%

23 September, Wednesday

Time Temperature Precipitation Wind Pressure Humidity
00:00 +15°C° 0 mm 2 mps 742 mmHg 84%
01:00 +15°C° 0 mm 2 mps 742 mmHg 85%
02:00 +14°C° 0 mm 2 mps 742 mmHg 86%
03:00 +14°C° 0 mm 1 mps 742 mmHg 87%
04:00 +14°C° 0 mm 1 mps 742 mmHg 88%
05:00 +14°C° 0 mm 1 mps 742 mmHg 89%
06:00 +15°C° 0 mm 1 mps 742 mmHg 83%
07:00 +17°C° 0 mm 2 mps 742 mmHg 76%
08:00 +18°C° 0 mm 2 mps 742 mmHg 69%
09:00 +22°C° 0 mm 1 mps 742 mmHg 57%
10:00 +25°C° 0 mm 1 mps 742 mmHg 45%
11:00 +28°C° 0 mm 1 mps 742 mmHg 33%
12:00 +29°C° 0 mm 1 mps 741 mmHg 30%
13:00 +30°C° 0 mm 1 mps 741 mmHg 27%
14:00 +31°C° 0 mm 1 mps 740 mmHg 25%
15:00 +31°C° 0 mm 1 mps 740 mmHg 26%
16:00 +30°C° 0 mm 1 mps 739 mmHg 27%
17:00 +30°C° 0 mm 1 mps 739 mmHg 28%
18:00 +27°C° 0 mm 2 mps 739 mmHg 37%
19:00 +24°C° 0 mm 2 mps 739 mmHg 46%
20:00 +20°C° 0 mm 2 mps 739 mmHg 55%
21:00 +20°C° 0 mm 2 mps 739 mmHg 59%
22:00 +19°C° 0 mm 2 mps 739 mmHg 63%
23:00 +18°C° 0 mm 2 mps 739 mmHg 67%

24 September, Thursday

Time Temperature Precipitation Wind Pressure Humidity
00:00 +18°C° 0 mm 2 mps 739 mmHg 67%
01:00 +18°C° 0 mm 2 mps 739 mmHg 68%
02:00 +18°C° 0 mm 2 mps 738 mmHg 69%
03:00 +19°C° 0 mm 1 mps 738 mmHg 68%
04:00 +18°C° 0 mm 1 mps 738 mmHg 68%
05:00 +18°C° 0 mm 1 mps 738 mmHg 68%
06:00 +20°C° 0 mm 1 mps 738 mmHg 62%
07:00 +21°C° 0 mm 1 mps 739 mmHg 56%
08:00 +23°C° 0 mm 1 mps 739 mmHg 49%
09:00 +25°C° 0 mm 1 mps 739 mmHg 43%
10:00 +27°C° 0 mm 2 mps 739 mmHg 37%
11:00 +30°C° 0 mm 2 mps 739 mmHg 31%
12:00 +31°C° 0 mm 2 mps 739 mmHg 29%
13:00 +31°C° 0 mm 2 mps 739 mmHg 27%
14:00 +32°C° 0 mm 2 mps 739 mmHg 26%
15:00 +32°C° 0 mm 2 mps 738 mmHg 27%
16:00 +31°C° 0 mm 2 mps 738 mmHg 27%
17:00 +31°C° 0 mm 2 mps 738 mmHg 28%
18:00 +28°C° 0 mm 2 mps 738 mmHg 36%
19:00 +25°C° 0 mm 2 mps 739 mmHg 44%
20:00 +23°C° 0 mm 1 mps 739 mmHg 53%
21:00 +22°C° 0 mm 1 mps 739 mmHg 56%
22:00 +21°C° 0 mm 1 mps 739 mmHg 59%
23:00 +21°C° 0 mm 1 mps 739 mmHg 62%

25 September, Friday

Time Temperature Precipitation Wind Pressure Humidity
00:00 +21°C° 0 mm 1 mps 739 mmHg 61%
01:00 +21°C° 0 mm 1 mps 739 mmHg 60%
02:00 +21°C° 0 mm 1 mps 738 mmHg 59%
03:00 +20°C° 0 mm 1 mps 738 mmHg 59%
04:00 +20°C° 0 mm 1 mps 738 mmHg 59%
05:00 +20°C° 0 mm 1 mps 738 mmHg 58%
06:00 +22°C° 0 mm 1 mps 738 mmHg 53%
07:00 +24°C° 0 mm 1 mps 738 mmHg 47%
08:00 +25°C° 0 mm 2 mps 738 mmHg 42%
09:00 +28°C° 0 mm 2 mps 738 mmHg 36%
10:00 +30°C° 0 mm 3 mps 738 mmHg 31%
11:00 +34°C° 0 mm 4 mps 737 mmHg 25%
12:00 +34°C° 0 mm 4 mps 737 mmHg 24%
13:00 +35°C° 0 mm 5 mps 736 mmHg 23%
14:00 +35°C° 0 mm 5 mps 735 mmHg 22%
15:00 +35°C° 0 mm 5 mps 735 mmHg 23%
16:00 +34°C° 0 mm 4 mps 735 mmHg 24%
17:00 +33°C° 0 mm 4 mps 734 mmHg 25%
18:00 +30°C° 0 mm 4 mps 734 mmHg 30%
19:00 +28°C° 0 mm 3 mps 734 mmHg 36%
20:00 +25°C° 0 mm 3 mps 733 mmHg 41%
21:00 +25°C° 0 mm 2 mps 733 mmHg 43%
22:00 +24°C° 0 mm 2 mps 733 mmHg 45%
23:00 +24°C° 0 mm 1 mps 733 mmHg 47%
Show more